Tracking 28790 objects as of 18-Apr-2024
HD Live streaming from Space Station
objects crossing your sky now

FENGYUN 1C DEB

Track FENGYUN 1C DEB now!
10-day predictions


NORAD ID: 31064
Int'l Code: 1999-025BFJ
Perigee: 654.5 km
Apogee: 1,009.4 km
Inclination: 98.5 °
Period: 101.4 minutes
Semi major axis: 7202 km
RCS: 0.0138 m2 (small)
Launch date: May 10, 1999
Source: People's Republic of China (PRC)
Launch site: Taiyaun Space Center, China (TSC)

Note: This is SATELLITE DEBRIS
Your satellite tracking list
Your tracking list is empty




NASA's NSSDC Master Catalog

Two Line Element Set (TLE):
1 31064U 99025BFJ 24106.78009888  .00001792  00000-0  63603-3 0  9990
2 31064  98.5253 102.1680 0246365 321.4103 213.1102 14.20153361887533
Source of the keplerian elements: AFSPC